Home   Weather   Beja   Past weeks

Flag for Portugal Past Weather in Beja, Portugal — Yesterday and Last 2 Weeks

Now
48 °F

Clear.


Feels Like: 44 °F
Forecast: 47 / 63 °F
Wind: 10 mph from East

Location: Beja Airport

Current Time: Dec 9, 2016 at 4:00:06 am

Latest Report: Dec 9, 2016 at 3:00 am


Visibility: 10 mi

Pressure: 30.36 "Hg

Humidity: 87%

Dew Point: 45 °F

Location of BejaLocation

Past Weather in Beja — Graph

°F

Beja Temperature Yesterday

Maximum temperature yesterday: 61 °F (at 2:00 pm)
Minimum temperature yesterday: 48 °F (at 5:00 am)
Average temperature yesterday: 53 °F

High & Low Weather Summary for the Past Weeks

 TemperatureHumidityPressure
High68 °F (Dec 6, 2:00 pm)100% (Nov 24, 2:00 am)30.42 "Hg (Nov 24, 2:00 am)
Low41 °F (Nov 24, 2:00 am)51% (Nov 24, 2:00 pm)29.59 "Hg (Nov 26, 1:00 am)
Average54 °F89%29.97 "Hg
* Reported Nov 24 2:00 am — Dec 9 2:00 am, Beja, Weather by CustomWeather, © 2016

Note: Actual official high and low records may vary slightly from our data, if they occured in-between our weather recording intervals... More about our weather records

Advertising

Beja Weather History for the Previous 24 Hours

Scroll right to see more
 ConditionsComfort  
Time TempWeatherWind HumidityBarometerVisibility
2:00 am
Fri, Dec 9
48 °FClear.12 mph87%30.36 "Hg10 mi
1:00 am48 °FClear.8 mph87%30.36 "Hg10 mi
12:00 am50 °FClear.6 mph82%30.39 "Hg10 mi
11:00 pm
Thu, Dec 8
50 °FClear.8 mph82%30.39 "Hg10 mi
10:00 pm52 °FClear.7 mph77%30.39 "Hg10 mi
9:00 pm54 °FClear.7 mph77%30.39 "Hg10 mi
8:00 pm54 °FClear.8 mph77%30.39 "Hg10 mi
7:00 pm54 °FClear.7 mph82%30.36 "Hg10 mi
6:00 pm57 °FClear.5 mph72%30.36 "Hg10 mi
5:00 pm61 °FSunny.5 mph63%30.36 "Hg10 mi
4:00 pm61 °FSunny.10 mph63%30.33 "Hg10 mi
3:00 pm61 °FSunny.10 mph59%30.33 "Hg10 mi
2:00 pm61 °FPassing clouds.12 mph63%30.36 "HgN/A
1:00 pm59 °FPassing clouds.12 mph72%30.36 "HgN/A
12:00 pm57 °FSunny.10 mph77%30.39 "Hg10 mi
11:00 am54 °FSunny.10 mph88%30.39 "Hg10 mi
10:00 am52 °FSunny.8 mph88%30.42 "Hg10 mi
9:00 am48 °FSunny.9 mph100%30.42 "Hg10 mi
8:00 am48 °FPassing clouds.8 mph94%30.39 "HgN/A
7:00 am48 °FPassing clouds.8 mph100%30.39 "HgN/A
6:00 am48 °FClear.7 mph100%30.36 "Hg10 mi
5:00 am48 °FFog.7 mph100%30.36 "Hg6 mi
4:00 am50 °FFog.5 mph100%30.36 "Hg5 mi
Weather by CustomWeather, © 2016

See weather overviewHow to use our weather pages